FW3057 Weather Reports


Display with metric or nautical units.
time (UTC)temp
F
wind
direction
speed
MPH
gust
MPH
rain 1hr
in
rain 24hr
in
rain mn
in
humidity
%
barometer
mb
20260502130310 60 171 9.0 14.0 0.00 0.63 0.63 97 1013.1
20260502123310 58 207 4.0 9.0 0.00 0.63 0.63 98 1013.5
20260502122310 58 186 4.0 9.0 0.00 0.63 0.63 98 1013.4
20260502121310 58 157 3.0 6.0 0.00 0.63 0.63 98 1013.5
20260502115310 58 96 5.0 7.0 0.00 0.63 0.63 98 1013.6
20260502114310 58 105 5.0 7.0 0.00 0.63 0.63 98 1013.7
20260502112310 57 140 4.0 11.0 0.00 0.63 0.63 98 1013.6
20260502111310 57 101 7.0 10.0 0.01 0.63 0.63 98 1013.4
20260502110310 57 128 5.0 7.0 0.02 0.63 0.63 99 1013.4
20260502105310 57 152 5.0 8.0 0.06 0.63 0.63 99 1013.5
20260502104310 57 96 5.0 7.0 0.09 0.63 0.63 99 1013.4
20260502103310 57 42 2.0 4.0 0.13 0.63 0.63 98 1013.4
20260502102310 56 234 1.0 8.0 0.18 0.63 0.63 98 1013.9
20260502101310 56 21 5.0 8.0 0.20 0.62 0.62 98 1013.6
20260502100310 56 269 1.0 8.0 0.28 0.61 0.61 98 1015.3
20260502091311 56 220 6.0 12.0 0.22 0.43 0.43 98 1016.5
20260502071310 56 98 5.0 11.0 0.06 0.12 0.12 97 1015.6
20260502070310 56 91 9.0 12.0 0.05 0.10 0.10 97 1015.8
20260502065310 56 89 4.0 8.0 0.06 0.10 0.10 97 1016.2
20260502064310 55 89 3.0 7.0 0.06 0.10 0.10 97 1015.8
20260502063310 55 103 6.0 9.0 0.06 0.09 0.09 97 1015.9
20260502062310 55 103 6.0 12.0 0.06 0.07 0.07 96 1016.1
20260502061309 55 84 7.0 10.0 0.06 0.06 0.06 96 1016.4
20260502060309 54 112 6.0 10.0 0.06 0.06 0.06 96 1016.8
20260502055309 54 77 5.0 8.0 0.05 0.05 0.05 95 1016.9
20260502054309 54 121 4.0 7.0 0.04 0.04 0.04 95 1017.1
20260502053309 54 129 3.0 4.0 0.03 0.03 0.03 95 1017.2
20260502052309 54 108 2.0 3.0 0.02 0.02 0.02 95 1017.3
20260502051310 54 218 2.0 6.0 0.00 0.00 0.00 94 1017.6
20260502050309 54 211 4.0 6.0 0.00 0.00 0.00 94 1017.7
20260502045309 54 100 2.0 4.0 0.00 0.00 0.00 94 1017.3
20260502043312 54 42 3.0 5.0 0.00 0.00 0.00 94 1017.2
20260502041311 54 82 3.0 4.0 0.00 0.00 0.00 94 1017.4
20260502040311 54 58 3.0 7.0 0.00 0.00 0.00 94 1017.4
20260502035311 54 86 3.0 5.0 0.00 0.00 0.00 93 1017.5
20260502034311 54 54 3.0 5.0 0.00 0.00 0.00 93 1017.7
20260502033311 54 89 3.0 4.0 0.00 0.00 0.00 93 1017.9
20260502032311 54 46 1.0 3.0 0.00 0.00 0.00 93 1018.0
20260502031311 54 105 1.0 2.0 0.00 0.00 0.00 92 1018.0
20260502030311 54 89 2.0 4.0 0.00 0.00 0.00 92 1018.1
20260502025311 54 103 2.0 4.0 0.00 0.00 0.00 92 1018.2
20260502024312 54 28 2.0 4.0 0.00 0.00 0.00 91 1018.2
20260502023312 54 70 2.0 4.0 0.00 0.00 0.00 91 1018.3
20260502022311 54 77 3.0 5.0 0.00 0.00 0.00 91 1018.5
20260502020311 54 83 3.0 5.0 0.00 0.00 0.00 90 1018.8
20260502015311 54 46 2.0 4.0 0.00 0.00 0.00 90 1018.9
20260502013311 54 56 1.0 1.0 0.00 0.00 0.00 90 1019.3
20260502012311 54 314 1.0 2.0 0.00 0.00 0.00 90 1019.5
20260502011311 54 178 0.0 3.0 0.00 0.00 0.00 90 1019.7
20260502010311 54 296 1.0 1.0 0.00 0.00 0.00 90 1019.8
20260502005311 54 135 0.0 0.0 0.00 0.00 0.00 90 1019.9
20260502004312 54 46 0.0 1.0 0.00 0.00 0.00 90 1020.1
20260502003311 54 28 0.0 1.0 0.00 0.00 0.00 90 1020.2
20260502002311 54 152 0.0 1.0 0.00 0.00 0.00 90 1020.3
20260502001311 54 142 1.0 2.0 0.00 0.00 0.00 90 1020.4
20260502000311 54 206 0.0 1.0 0.00 0.00 0.00 89 1020.5
20260501235311 54 269 0.0 1.0 0.00 0.00 0.00 90 1020.6
20260501234311 54 124 1.0 2.0 0.00 0.00 0.00 90 1020.5
20260501233311 54 122 1.0 2.0 0.00 0.00 0.00 90 1020.4
20260501225312 54 127 1.0 2.0 0.00 0.00 0.00 89 1020.8
20260501224311 55 108 1.0 2.0 0.00 0.00 0.00 89 1020.9
20260501223311 55 124 1.0 2.0 0.00 0.00 0.00 89 1021.0
20260501222311 55 117 0.0 1.0 0.00 0.00 0.00 89 1020.9
20260501221311 55 142 0.0 2.0 0.00 0.00 0.00 89 1021.1
20260501215311 55 89 1.0 2.0 0.00 0.00 0.00 89 1021.1
20260501214311 55 107 1.0 2.0 0.00 0.00 0.00 89 1021.1
20260501213311 55 145 0.0 1.0 0.00 0.00 0.00 89 1021.3
20260501212311 55 178 1.0 2.0 0.00 0.00 0.00 88 1021.4
20260501211311 55 165 1.0 1.0 0.00 0.00 0.00 88 1021.3
20260501210311 55 152 0.0 1.0 0.00 0.00 0.00 88 1021.3
20260501205310 55 178 0.0 1.0 0.00 0.00 0.00 88 1021.2
20260501204310 59 178 2.0 5.0 0.00 0.00 0.00 84 1020.6
20260501203310 55 89 0.0 1.0 0.00 0.00 0.00 87 1021.3
20260501201311 56 135 0.0 0.0 0.00 0.00 0.00 87 1021.1
20260501200311 56 117 0.0 2.0 0.00 0.00 0.00 87 1021.0
20260501195312 56 46 1.0 2.0 0.00 0.00 0.00 87 1021.0
20260501194310 56 72 1.0 2.0 0.00 0.00 0.00 87 1021.0
20260501193310 56 28 1.0 2.0 0.00 0.00 0.00 87 1020.9
20260501192310 56 76 1.0 4.0 0.00 0.00 0.00 87 1020.9
20260501190310 56 269 1.0 3.0 0.00 0.00 0.00 86 1020.8
20260501185310 56 72 1.0 3.0 0.00 0.00 0.00 86 1020.7
20260501184310 56 51 2.0 3.0 0.00 0.00 0.00 86 1020.8
20260501183310 56 76 2.0 4.0 0.00 0.00 0.00 86 1020.7
20260501182310 57 20 1.0 2.0 0.00 0.00 0.00 85 1020.7
20260501181310 57 49 1.0 5.0 0.00 0.00 0.00 85 1020.6
20260501180310 57 79 2.0 4.0 0.00 0.00 0.00 84 1020.6
20260501175310 58 33 2.0 5.0 0.00 0.00 0.00 84 1020.7
20260501174310 58 89 2.0 5.0 0.00 0.00 0.00 83 1020.4
20260501173310 58 314 1.0 6.0 0.00 0.00 0.00 83 1020.7
20260501172310 59 41 3.0 6.0 0.00 0.00 0.00 84 1020.6
20260501171310 59 35 2.0 5.0 0.00 0.00 0.00 84 1020.7
20260501170310 59 349 3.0 6.0 0.00 0.00 0.00 84 1020.6
20260501165310 59 32 2.0 5.0 0.00 0.00 0.00 84 1020.6
20260501162310 58 79 4.0 8.0 0.00 0.00 0.00 85 1020.6
20260501161310 59 49 5.0 8.0 0.00 0.00 0.00 84 1020.7
20260501160310 59 89 2.0 8.0 0.00 0.00 0.00 84 1020.5
20260501155310 59 21 3.0 8.0 0.00 0.00 0.00 84 1020.6
20260501154310 59 96 5.0 8.0 0.00 0.00 0.00 84 1020.7
20260501151310 60 58 4.0 11.0 0.00 0.00 0.00 84 1020.9
20260501150310 60 27 5.0 10.0 0.00 0.00 0.00 84 1020.7
20260501144310 60 39 5.0 11.0 0.00 0.00 0.00 84 1021.0
20260501143310 60 82 5.0 11.0 0.00 0.00 0.00 83 1021.1
20260501142310 60 68 7.0 11.0 0.00 0.00 0.00 83 1021.1
20260501141310 60 344 3.0 11.0 0.00 0.00 0.00 82 1021.1
20260501140310 60 88 6.0 11.0 0.00 0.00 0.00 81 1021.1
20260501135310 61 77 5.0 10.0 0.00 0.00 0.00 81 1021.1
20260501134310 61 23 5.0 11.0 0.00 0.00 0.00 81 1021.1
20260501133310 61 37 3.0 9.0 0.00 0.00 0.00 81 1021.1